SCP
0 0 0 0 0 0 0 0 0 0 0 0 0 0 0 0 0 0 0 0 0 0 0 0 0 0 0 0 0 0 0 0 0 0 0 0 0 0 0 0 0 0 0 0 0 0 0 0 0 0 0 0 0 0
0 0 0 0 0 0 0 0 0 0 0 0 0 0 0 0 0 0 0 0 0 0 0 0 0 0 0 0 0 0 0 0 0 0 0 0 0 0 0 0 0 0 0 0 0 0 0 0 0 0 0 0 0 0
0 0 0 0 0 0 0 0 0 0 0 0 0 0 0 0 0 0 0 0 0 0 0 0 0 0 0 0 0 0 0 0 0 0 0 0 0 0 0 0 0 0 0 0 0 0 0 0 0 0 0 0 0 0
0 0 0 0 0 0 0 0 0 0 0 0 0 0 0 0 0 0 0 0 0 0 0 0 0 0 0 0 0 0 0 0 0 0 0 0 0 0 0 0 0 0 -0 0 0 -0 0 0 0 0 1 0 0 0
0 0 0 0 0 0 0 0 0 0 0 0 0 0 0 0 0 0 0 0 0 0 0 -0 0 0 0 0 0 0 0 0 0 0 0 0 0 0 0 0 -0 0 0 0 0 0 0 0 0 0 1 1 0 0
0 0 0 0 0 0 0 0 0 0 0 0 0 0 0 0 0 0 0 0 0 0 0 0 0 0 0 0 0 0 0 0 0 0 0 0 0 0 0 -0 0 0 0 0 0 0 0 0 0 0 1 1 0 0
0 0 0 0 0 0 0 0 0 0 0 0 0 0 0 0 0 0 0 0 0 0 0 0 0 0 0 0 0 0 0 0 0 0 0 0 0 0 0 -0 0 -0 0 0 0 -0 0 0 0 0 1 1 0 0
0 0 0 0 0 0 0 0 0 0 0 0 0 0 0 0 0 0 0 -0 -0 0 0 0 0 0 0 0 0 0 0 0 0 0 0 0 0 0 -0 0 -0 0 0 0 0 0 0 0 0 0 0 0 0 0
0 0 0 0 0 0 0 0 0 0 0 0 0 0 0 0 0 0 0 0 0 0 0 0 0 0 0 0 0 0 0 0 0 0 0 0 0 -0 -0 -0 0 -0 0 0 0 0 0 0 0 0 0 0 0 0
0 0 0 0 0 0 0 0 0 0 0 0 0 0 0 0 0 0 0 0 0 0 0 0 0 0 0 0 0 0 0 0 0 0 0 0 0 0 0 0 -0 -0 0 0 0 0 0 0 0 0 0 0 0 0
0 0 0 0 0 0 0 0 0 0 0 0 0 0 0 0 0 0 0 0 0 0 0 0 0 0 0 0 0 0 0 0 0 0 0 -0 0 0 0 0 -0 0 0 -0 0 -0 0 0 0 0 0 0 0 -0
-0 0 0 -0 0 0 0 0 0 0 0 0 0 0 0 0 0 0 0 0 0 0 0 0 0 0 0 0 0 0 -0 0 0 0 0 0 0 0 0 0 0 0 0 0 0 0 0 0 0 0 0 -0 -0 -0
-0 -0 -0 -0 0 0 0 0 0 0 0 0 0 0 0 0 0 0 0 0 0 0 0 0 0 0 0 0 0 0 0 0 0 0 0 0 0 0 0 0 0 0 -0 -0 0 0 0 0 0 -0 -0 -0 -0 0
-0 -0 -0 -0 -0 -0 -0 0 0 0 0 0 0 0 0 0 0 0 0 0 0 0 -0 -0 0 0 0 0 -0 0 0 0 0 0 0 0 0 0 -0 0 0 0 -0 0 0 0 0 0 0 0 0 -0 0 0
-0 -0 -0 -0 -0 0 0 0 0 0 0 0 0 0 0 0 0 0 -0 -0 -0 -0 -0 -0 0 0 0 0 0 0 0 0 0 0 0 0 0 0 0 0 0 0 0 0 -0 -0 0 0 0 0 0 0 0 0
0 0 0 0 -0 0 0 0 0 0 0 0 0 0 0 0 0 -0 -0 -0 -0 -0 0 0 0 0 0 0 0 0 0 0 0 0 0 0 0 0 0 0 0 0 0 0 0 0 0 0 0 -0 0 0 0 -0
0 0 0 0 0 0 -0 0 0 0 0 0 0 0 0 -0 0 0 -0 -0 0 -0 0 0 0 0 0 0 0 0 0 0 0 0 0 0 0 0 0 0 0 0 0 0 0 0 0 0 0 0 0 0 0 -0
0 0 -0 -0 0 0 0 0 0 0 0 0 0 0 -0 0 0 0 0 0 0 0 0 0 0 0 0 0 0 0 0 0 0 0 0 0 0 0 0 0 0 0 0 0 0 0 0 0 0 0 0 0 0 0
0 0 0 0 0 0 0 0 -0 0 0 0 0 0 0 0 0 0 0 0 0 0 0 0 0 0 0 0 0 0 0 0 0 0 0 0 0 0 0 0 0 0 0 0 0 0 0 0 0 0 0 0 0 0
0 0 0 0 0 0 0 0 0 0 0 0 0 0 0 0 0 0 0 0 0 0 0 0 0 0 0 0 0 0 0 0 0 0 0 0 0 0 0 0 0 0 0 0 0 0 0 0 0 0 0 0 0 0
0 0 0 0 0 0 0 -0 -0 0 0 0 0 0 0 0 0 0 0 0 0 0 0 0 0 0 0 0 0 0 0 0 0 0 0 0 0 0 0 0 0 0 0 0 0 0 0 0 0 0 0 0 0 0
0 0 0 0 0 0 0 0 0 0 0 0 0 0 0 0 0 0 0 0 0 0 0 0 0 0 0 0 0 0 0 0 0 0 0 0 0 0 0 0 0 0 0 0 0 0 0 0 0 0 0 0 0 0
0 0 0 0 0 0 0 0 0 0 0 0 0 0 0 0 0 0 0 0 0 0 0 0 0 0 0 0 0 0 0 0 0 0 0 0 0 0 0 0 0 0 0 0 0 0 0 0 0 0 0 0 0 0
0 0 0 0 0 0 0 0 0 0 0 0 0 0 0 0 0 0 0 0 0 0 0 0 0 0 -0 -0 -0 0 0 0 0 0 0 0 0 0 0 0 0 0 0 0 0 0 0 0 0 0 0 0 0 0
0 0 0 0 0 0 0 0 -0 -0 0 -0 0 0 0 -0 -0 -0 -0 -0 -0 -0 0 0 0 0 0 -0 -0 -0 0 0 0 0 0 0 0 0 0 0 0 0 0 0 0 0 0 0 0 0 0 0 0 0
0 0 0 0 0 0 0 0 0 -0 -0 0 0 -0 -0 -0 -0 -0 0 0 0 0 0 0 0 0 0 0 0 0 0 0 0 0 0 0 0 0 0 0 0 0 0 0 0 0 0 0 0 0 0 0 0 0
0 0 0 0 0 -0 -0 -0 -0 0 0 0 0 0 0 0 0 -0 0 0 -0 0 0 -0 -0 0 0 0 0 0 0 0 0 0 0 0 0 0 0 0 0 0 0 0 0 0 0 0 0 0 0 0 0 0
0 0 -0 -0 -0 0 0 0 0 0 0 0 0 0 0 0 0 0 0 -0 -0 -0 -0 -0 0 0 -0 0 0 0 0 0 0 0 0 0 0 0 0 0 0 0 0 0 0 0 0 0 0 0 0 0 0 0
0 0 0 0 0 0 0 0 0 0 0 0 0 0 0 0 0 0 0 -0 -0 -0 -0 0 0 -0 -0 0 0 0 0 0 0 0 0 0 0 0 0 0 0 0 0 0 0 0 0 0 0 0 0 0 0 0
0 0 0 0 0 0 0 0 0 0 0 0 0 0 0 0 0 0 0 0 -0 -0 -0 0 0 0 0 0 0 0 0 0 0 0 0 0 0 0 0 0 0 0 0 0 0 0 0 0 0 0 0 0 0 0
0 0 0 0 0 0 0 0 0 0 0 0 0 0 0 0 0 0 0 0 0 0 -0 0 0 0 0 0 0 0 0 0 0 0 0 0 0 0 0 0 0 0 0 0 0 0 0 0 0 0 0 0 0 0
0 0 0 0 0 0 0 0 0 0 0 0 0 0 0 0 0 0 0 0 0 0 0 0 0 0 0 0 0 0 0 0 0 0 0 0 0 0 0 0 0 0 0 0 0 0 0 0 -0 -0 0 0 0 0
0 0 0 0 0 0 0 0 0 0 0 0 0 0 0 0 0 0 0 0 0 0 0 0 0 0 0 0 0 0 0 0 0 0 0 0 0 0 0 0 0 0 0 0 0 0 0 0 0 0 0 0 0 0
Wind_Speed_500mb
45 47 66 62 52 43 33 34 33 32 30 26 23 20 20 20 26 26 22 26 31 13 43 37 23 14 12 8 4 5 11 4 1 2 2 6 6 6 9 7 12 14 6 10 5 10 30 17 10 21 13 14 38 48
51 67 61 51 36 27 31 33 32 32 29 27 24 23 24 21 28 27 28 23 24 28 33 29 30 38 38 28 17 13 7 6 5 5 3 2 5 7 7 8 10 15 20 13 16 14 15 28 26 34 25 22 32 55
49 41 33 26 27 34 32 30 30 29 27 26 24 24 25 27 24 34 30 22 22 22 49 60 61 50 47 58 52 30 20 22 11 12 9 3 11 4 5 7 10 12 13 10 2 37 31 55 47 31 33 36 46 61
28 28 32 36 35 33 29 29 27 25 25 25 24 21 22 27 24 26 31 25 20 10 9 18 18 29 21 24 34 37 49 39 31 23 11 6 6 13 7 9 12 20 22 12 16 28 19 45 52 42 44 40 47 58
34 35 35 34 34 33 31 28 24 21 20 22 21 17 15 18 20 24 26 26 24 21 8 28 66 41 36 57 51 49 48 54 29 16 8 7 11 10 11 8 15 17 9 17 20 14 29 25 43 44 47 51 60 76
32 35 35 32 37 32 29 27 24 22 21 20 16 14 16 17 18 13 7 19 31 32 9 8 23 37 21 31 40 50 63 54 46 19 13 14 47 11 8 9 16 44 59 55 25 21 40 51 39 39 63 65 79 82
36 34 31 30 33 34 28 26 23 21 20 17 14 12 13 18 22 16 4 8 10 28 7 11 13 12 21 13 31 38 46 32 29 19 13 26 23 22 8 20 36 48 75 71 70 55 40 18 20 45 58 69 80 82
35 33 31 31 30 31 30 27 24 22 18 16 13 10 11 16 18 27 28 20 6 3 10 6 8 16 16 7 14 24 27 28 20 16 15 16 21 24 13 30 34 73 67 45 35 39 50 19 29 44 59 70 72 73
32 32 31 34 31 29 28 27 23 20 16 13 12 11 7 12 13 14 11 24 28 20 7 7 5 6 17 14 1 19 21 6 17 11 21 11 8 11 22 21 26 68 11 11 10 6 21 45 57 57 58 64 74 65
34 30 28 31 34 32 27 26 23 19 16 13 11 7 7 7 15 11 17 16 16 11 17 10 10 7 7 14 7 3 7 7 5 13 18 11 15 64 64 51 31 37 37 10 10 4 28 35 50 60 42 32 81 70
34 31 28 27 31 34 32 28 24 24 17 12 6 4 6 5 16 11 8 8 11 7 15 18 37 14 21 7 6 7 2 4 5 8 8 7 8 19 65 59 37 5 37 26 10 19 28 39 38 43 45 4 90 72
31 31 30 29 26 30 34 29 29 27 12 12 9 10 10 10 12 7 7 8 9 9 12 11 17 28 10 17 3 8 5 5 10 3 5 6 7 46 18 38 37 13 37 15 14 32 29 44 56 59 59 48 54 74
30 29 28 29 29 25 34 30 27 24 16 6 5 5 6 8 7 9 12 7 6 10 4 7 4 10 17 14 6 6 5 9 10 2 7 6 29 24 27 40 20 19 12 10 22 13 23 28 31 38 54 57 64 68
29 29 30 28 30 26 31 30 26 24 14 6 6 4 7 9 8 9 9 7 13 8 4 11 10 13 12 8 7 5 8 3 5 3 5 9 43 27 26 34 23 16 8 29 30 1 5 15 22 32 52 57 78 71
29 28 29 27 33 27 32 29 26 25 11 10 9 8 14 21 17 16 18 16 11 15 12 10 16 9 5 5 4 2 4 6 3 2 3 24 38 21 26 26 24 28 21 19 30 41 34 27 40 40 44 46 44 54
28 30 31 29 29 31 30 27 29 25 9 8 13 10 24 13 18 12 24 29 9 6 14 9 5 5 7 5 5 8 3 7 3 1 3 14 20 33 38 37 33 12 4 21 18 28 20 23 33 42 36 32 37 59
33 27 33 29 31 29 24 20 11 8 9 9 14 28 39 35 30 37 9 9 20 15 5 9 8 9 3 4 5 6 6 3 8 6 11 23 11 8 21 29 25 19 17 18 11 19 34 31 23 29 35 36 44 57
20 29 32 37 35 31 27 20 9 11 14 22 12 22 18 22 32 33 34 30 14 10 20 6 5 5 8 9 5 4 5 16 11 8 11 17 11 11 6 15 22 15 9 6 8 11 26 29 30 29 30 36 45 55
30 33 32 31 30 18 13 12 13 9 22 19 23 28 22 29 29 23 16 5 17 12 7 5 3 1 3 1 4 14 19 20 23 24 24 23 20 16 16 14 17 19 10 11 10 9 18 32 29 27 28 32 38 44
27 28 30 31 20 7 8 10 17 12 8 9 12 14 13 16 15 3 7 8 9 4 5 3 5 9 7 24 14 14 22 24 25 24 19 16 16 18 20 27 23 14 15 14 23 20 22 26 22 20 22 30 40 41
28 26 24 21 18 20 11 9 12 11 9 8 13 10 8 4 3 15 6 8 11 7 7 13 19 22 18 25 28 28 23 17 15 11 10 10 10 12 21 26 24 19 19 19 22 23 21 28 13 18 24 28 40 38
12 11 12 22 12 10 11 13 10 5 7 3 1 5 5 3 9 8 10 17 8 11 6 7 14 13 10 10 12 19 19 21 22 16 11 7 5 7 18 23 21 23 23 21 17 19 20 29 21 16 17 27 40 30
1 4 8 7 8 8 14 11 11 13 2 1 2 4 5 6 7 7 9 7 6 10 10 7 13 19 14 6 10 11 5 9 13 13 14 13 14 11 9 10 13 16 20 22 18 20 23 21 24 24 25 30 39 56
2 5 5 6 6 10 18 9 9 8 6 3 1 5 7 12 12 7 5 5 5 16 17 19 22 26 27 27 27 24 22 21 19 15 13 13 12 20 15 12 15 16 18 18 15 16 19 20 23 31 38 48 50 58
2 2 4 7 3 7 9 10 13 10 7 8 6 7 6 14 4 4 2 2 9 18 15 13 16 20 28 36 40 42 37 39 40 38 34 26 20 17 21 22 21 22 18 11 13 14 19 18 25 30 36 49 58 54
5 5 4 8 8 7 3 7 8 9 7 7 9 14 10 4 5 2 3 10 19 22 22 21 20 19 18 18 26 29 28 29 35 47 50 48 40 31 26 20 21 18 14 15 11 14 21 26 28 31 32 43 51 54
7 7 8 8 9 5 9 12 13 9 6 8 6 10 6 7 4 5 17 27 34 28 21 20 22 26 24 21 18 16 22 30 34 31 33 41 50 41 31 30 21 18 15 9 10 8 17 28 35 44 51 41 35 33
8 9 6 16 17 21 7 8 9 10 7 14 14 7 7 8 4 16 33 46 33 19 22 17 20 19 16 14 14 12 18 20 21 22 27 38 48 44 36 30 30 23 17 13 11 7 9 23 33 36 38 41 37 41
13 19 19 20 14 14 16 10 13 13 18 16 10 6 10 9 30 48 62 50 16 6 7 7 8 8 9 12 12 8 20 25 30 33 34 43 56 54 45 37 32 29 27 21 18 12 13 20 25 30 35 42 40 46
18 13 10 14 8 8 9 9 10 22 27 31 23 19 23 23 34 60 68 43 30 23 17 12 8 8 11 18 19 17 17 14 20 26 31 44 54 53 52 42 39 34 30 25 24 28 31 30 28 34 45 54 47 46
11 15 11 11 7 5 8 12 20 24 22 34 38 32 36 23 47 76 78 66 47 32 28 27 24 25 22 25 21 22 20 15 10 11 13 27 37 45 54 44 37 34 32 25 28 37 38 36 44 49 50 51 44 47
13 7 10 5 5 8 15 15 27 36 41 42 45 40 43 34 41 65 79 70 66 53 39 41 37 31 28 25 23 23 27 33 31 34 42 44 43 46 47 41 38 34 30 36 42 39 44 53 56 51 41 41 41 42
29 27 17 10 7 5 6 3 4 6 9 20 41 49 40 23 17 52 66 65 62 57 52 35 43 40 43 44 44 40 34 34 34 33 33 36 41 44 42 36 30 28 30 38 46 58 53 43 35 38 38 38 40 43
Wind_Direction_500mb
207 200 201 201 204 208 217 224 211 210 209 220 223 223 222 222 210 226 228 214 218 243 261 264 259 238 223 244 173 299 343 289 319 122 321 320 307 310 299 279 229 230 212 224 147 183 256 187 147 181 230 170 202 197
202 189 190 196 193 204 209 203 204 210 215 215 218 220 224 221 215 227 231 222 231 240 258 273 250 255 253 245 238 229 247 212 165 109 199 252 291 305 314 280 324 241 219 244 188 216 244 220 228 228 245 215 204 190
175 184 184 177 184 192 196 202 205 207 211 217 216 218 225 224 218 229 239 239 248 275 276 269 266 273 263 251 246 224 248 233 219 226 165 250 262 278 261 282 314 317 321 235 102 251 248 260 230 232 212 207 203 195
169 171 179 182 183 186 188 191 198 207 211 212 215 222 227 221 219 232 242 244 241 258 266 283 267 262 252 219 226 234 239 240 251 214 192 203 238 220 244 265 266 264 296 281 280 286 280 256 241 219 187 191 182 180
174 178 184 187 186 185 186 185 189 193 197 201 202 213 218 218 222 234 244 245 233 222 284 292 298 290 246 230 242 239 238 230 223 183 206 217 213 238 230 239 238 213 271 252 253 278 294 255 236 225 186 180 181 173
175 176 177 178 180 175 180 185 187 188 188 194 203 212 210 206 210 216 253 245 226 220 275 300 293 295 250 242 220 226 231 232 209 213 228 245 243 250 257 260 235 249 273 282 250 271 268 271 260 220 213 194 179 176
173 175 174 175 181 184 180 182 185 189 191 196 204 210 211 207 206 192 203 160 164 191 251 283 280 290 326 215 204 214 211 196 200 216 232 247 252 209 266 263 272 297 295 296 251 259 270 265 245 204 193 169 169 168
177 176 173 173 172 176 184 185 187 191 195 198 200 204 217 221 227 236 224 198 55 218 253 267 272 310 5 227 169 191 184 197 211 222 224 223 254 212 244 254 293 308 294 265 276 235 246 141 150 160 169 165 158 155
173 173 177 180 176 176 180 181 183 187 186 186 199 213 240 228 228 262 230 219 235 240 269 240 269 282 346 343 151 175 169 152 223 206 229 230 229 242 239 234 286 308 335 308 242 152 122 120 119 124 136 136 132 131
173 175 180 184 186 184 178 178 181 179 174 181 196 209 219 207 181 165 167 172 195 228 221 245 232 262 335 359 300 256 176 195 221 227 183 206 249 246 252 255 283 310 348 311 221 179 140 118 124 131 110 131 136 124
169 173 174 171 182 188 187 183 180 177 178 171 159 249 227 218 173 188 185 181 202 240 221 232 217 223 238 180 259 241 185 251 234 258 190 217 263 242 249 231 248 326 359 351 258 228 159 130 133 131 134 327 134 162
177 180 181 182 180 183 181 182 183 185 177 177 193 261 257 202 179 174 191 202 220 234 211 206 230 211 234 183 174 226 190 250 243 199 221 275 264 332 261 191 196 197 1 8 139 144 148 133 126 123 127 155 170 165
176 178 178 182 182 179 181 182 184 186 191 194 223 249 221 220 200 203 191 200 224 217 182 31 283 213 201 196 172 238 235 233 323 235 220 235 335 348 182 166 154 159 146 80 148 155 156 158 186 191 180 182 178 163
179 179 179 180 182 177 177 175 184 186 184 204 225 249 216 208 232 202 205 209 239 239 98 27 307 207 200 170 176 250 236 326 302 293 295 320 334 327 194 183 146 124 118 94 124 135 176 132 180 174 182 186 172 158
177 176 176 175 175 177 173 179 186 186 196 219 210 231 223 235 247 225 233 254 254 274 234 17 271 235 242 199 195 260 270 280 265 288 278 336 26 77 134 141 153 134 126 134 119 100 125 144 137 153 159 166 161 158
160 164 176 170 172 170 172 185 198 198 220 231 226 244 246 255 275 246 227 236 230 290 151 198 234 215 203 180 161 213 221 220 228 194 280 93 43 53 78 93 118 144 83 120 146 183 180 197 170 150 147 160 169 164
159 171 166 169 164 165 177 168 175 223 230 234 241 240 257 276 274 286 310 255 264 198 165 204 203 195 118 144 217 201 220 192 146 130 87 74 120 348 49 77 79 82 82 125 144 158 178 167 171 152 158 168 180 175
155 157 160 158 163 166 177 187 229 223 240 243 242 261 263 263 273 279 267 258 228 190 172 222 150 165 181 178 223 235 100 114 112 120 115 98 90 91 110 37 60 40 36 70 111 123 181 170 165 171 175 170 180 179
145 149 156 161 166 160 180 212 220 252 240 257 260 270 268 291 291 281 297 360 194 188 174 6 47 131 218 9 115 127 137 132 122 111 104 97 88 77 79 64 54 52 76 153 142 151 132 167 168 168 177 171 171 176
136 145 147 151 175 211 237 218 203 244 255 256 270 266 273 282 307 25 305 354 101 61 85 54 32 3 62 76 85 123 147 150 141 126 109 89 78 59 56 37 34 52 73 119 146 144 147 136 145 155 171 175 178 173
145 158 173 196 232 236 247 237 224 230 230 239 265 283 308 351 98 115 81 129 59 37 72 51 68 75 109 98 99 100 118 140 143 143 121 86 82 61 36 37 43 78 80 125 125 120 138 152 118 167 159 162 178 175
143 183 213 223 243 239 248 240 233 213 192 275 253 265 292 39 109 128 103 53 62 37 58 81 40 47 98 154 108 91 97 99 107 114 117 107 115 70 46 38 49 84 77 99 105 115 121 139 156 154 167 167 158 159
161 263 273 262 268 259 275 243 209 179 144 305 98 15 3 28 34 148 77 76 108 34 5 352 312 318 317 301 194 228 225 145 135 133 137 120 91 70 60 59 77 104 90 96 98 105 103 116 142 136 137 150 161 166
270 255 268 274 260 289 324 335 343 8 97 57 10 54 26 5 359 76 96 114 170 338 323 305 298 288 273 269 263 254 250 246 228 206 185 166 138 100 111 126 116 110 99 87 85 89 104 123 141 143 150 151 154 157
297 256 323 326 315 332 355 359 349 12 27 11 48 26 351 359 47 42 5 268 317 329 320 302 297 290 285 279 268 256 247 245 240 233 221 214 194 161 133 136 139 113 98 140 124 112 112 123 141 147 158 163 157 156
62 359 40 345 345 45 3 18 18 3 16 32 20 335 334 346 29 342 250 289 314 313 313 308 296 288 278 274 273 265 248 233 237 232 225 218 210 199 182 162 131 127 118 128 134 141 141 146 159 162 162 163 153 153
30 337 356 12 7 29 62 55 35 37 24 11 351 350 356 355 326 282 296 325 331 331 310 293 278 273 278 284 290 265 225 221 224 230 220 209 199 195 190 193 168 159 153 133 159 148 155 160 165 163 159 156 151 160
33 34 33 38 51 43 57 40 20 11 357 350 340 10 6 354 297 306 316 350 347 319 313 282 262 263 272 266 261 254 208 199 196 193 191 192 191 185 174 180 194 191 181 153 157 148 157 173 175 181 187 173 156 159
52 75 65 44 51 49 34 27 8 6 2 355 348 339 325 299 353 352 353 7 24 342 343 308 263 239 217 210 216 197 180 177 173 173 183 189 186 185 174 177 185 189 192 183 156 138 142 152 168 174 183 165 156 159
35 79 76 37 42 37 23 85 31 17 17 8 360 346 345 346 348 6 22 38 32 40 52 56 116 130 144 155 158 155 162 164 174 182 185 187 184 181 178 177 174 172 171 170 150 142 140 135 138 146 151 152 156 161
85 79 66 44 56 36 70 50 18 7 33 31 24 18 7 1 25 30 29 34 45 63 72 75 84 91 105 145 139 137 145 140 102 148 170 162 169 178 177 172 168 175 175 169 165 155 147 143 146 146 149 151 155 154
75 78 105 91 55 89 55 52 78 65 58 40 27 21 20 25 17 20 36 43 55 62 68 74 76 85 100 108 117 121 118 117 114 123 128 132 138 149 157 163 162 166 171 167 162 153 149 144 146 154 156 156 158 155
105 102 101 124 166 233 214 194 191 260 12 41 40 28 22 16 12 7 28 42 51 60 62 68 71 85 90 96 100 101 101 104 109 117 130 138 141 143 147 150 150 156 158 159 152 151 152 154 158 159 162 161 159 159
Wind_Speed_850mb
45 47 66 62 52 43 33 34 33 32 30 26 23 20 20 20 26 26 22 26 31 13 43 37 23 14 12 8 4 5 11 4 1 2 2 6 6 6 9 7 12 14 6 10 5 10 30 17 10 21 13 14 38 48
51 67 61 51 36 27 31 33 32 32 29 27 24 23 24 21 28 27 28 23 24 28 33 29 30 38 38 28 17 13 7 6 5 5 3 2 5 7 7 8 10 15 20 13 16 14 15 28 26 34 25 22 32 55
49 41 33 26 27 34 32 30 30 29 27 26 24 24 25 27 24 34 30 22 22 22 49 60 61 50 47 58 52 30 20 22 11 12 9 3 11 4 5 7 10 12 13 10 2 37 31 55 47 31 33 36 46 61
28 28 32 36 35 33 29 29 27 25 25 25 24 21 22 27 24 26 31 25 20 10 9 18 18 29 21 24 34 37 49 39 31 23 11 6 6 13 7 9 12 20 22 12 16 28 19 45 52 42 44 40 47 58
34 35 35 34 34 33 31 28 24 21 20 22 21 17 15 18 20 24 26 26 24 21 8 28 66 41 36 57 51 49 48 54 29 16 8 7 11 10 11 8 15 17 9 17 20 14 29 25 43 44 47 51 60 76
32 35 35 32 37 32 29 27 24 22 21 20 16 14 16 17 18 13 7 19 31 32 9 8 23 37 21 31 40 50 63 54 46 19 13 14 47 11 8 9 16 44 59 55 25 21 40 51 39 39 63 65 79 82
36 34 31 30 33 34 28 26 23 21 20 17 14 12 13 18 22 16 4 8 10 28 7 11 13 12 21 13 31 38 46 32 29 19 13 26 23 22 8 20 36 48 75 71 70 55 40 18 20 45 58 69 80 82
35 33 31 31 30 31 30 27 24 22 18 16 13 10 11 16 18 27 28 20 6 3 10 6 8 16 16 7 14 24 27 28 20 16 15 16 21 24 13 30 34 73 67 45 35 39 50 19 29 44 59 70 72 73
32 32 31 34 31 29 28 27 23 20 16 13 12 11 7 12 13 14 11 24 28 20 7 7 5 6 17 14 1 19 21 6 17 11 21 11 8 11 22 21 26 68 11 11 10 6 21 45 57 57 58 64 74 65
34 30 28 31 34 32 27 26 23 19 16 13 11 7 7 7 15 11 17 16 16 11 17 10 10 7 7 14 7 3 7 7 5 13 18 11 15 64 64 51 31 37 37 10 10 4 28 35 50 60 42 32 81 70
34 31 28 27 31 34 32 28 24 24 17 12 6 4 6 5 16 11 8 8 11 7 15 18 37 14 21 7 6 7 2 4 5 8 8 7 8 19 65 59 37 5 37 26 10 19 28 39 38 43 45 4 90 72
31 31 30 29 26 30 34 29 29 27 12 12 9 10 10 10 12 7 7 8 9 9 12 11 17 28 10 17 3 8 5 5 10 3 5 6 7 46 18 38 37 13 37 15 14 32 29 44 56 59 59 48 54 74
30 29 28 29 29 25 34 30 27 24 16 6 5 5 6 8 7 9 12 7 6 10 4 7 4 10 17 14 6 6 5 9 10 2 7 6 29 24 27 40 20 19 12 10 22 13 23 28 31 38 54 57 64 68
29 29 30 28 30 26 31 30 26 24 14 6 6 4 7 9 8 9 9 7 13 8 4 11 10 13 12 8 7 5 8 3 5 3 5 9 43 27 26 34 23 16 8 29 30 1 5 15 22 32 52 57 78 71
29 28 29 27 33 27 32 29 26 25 11 10 9 8 14 21 17 16 18 16 11 15 12 10 16 9 5 5 4 2 4 6 3 2 3 24 38 21 26 26 24 28 21 19 30 41 34 27 40 40 44 46 44 54
28 30 31 29 29 31 30 27 29 25 9 8 13 10 24 13 18 12 24 29 9 6 14 9 5 5 7 5 5 8 3 7 3 1 3 14 20 33 38 37 33 12 4 21 18 28 20 23 33 42 36 32 37 59
33 27 33 29 31 29 24 20 11 8 9 9 14 28 39 35 30 37 9 9 20 15 5 9 8 9 3 4 5 6 6 3 8 6 11 23 11 8 21 29 25 19 17 18 11 19 34 31 23 29 35 36 44 57
20 29 32 37 35 31 27 20 9 11 14 22 12 22 18 22 32 33 34 30 14 10 20 6 5 5 8 9 5 4 5 16 11 8 11 17 11 11 6 15 22 15 9 6 8 11 26 29 30 29 30 36 45 55
30 33 32 31 30 18 13 12 13 9 22 19 23 28 22 29 29 23 16 5 17 12 7 5 3 1 3 1 4 14 19 20 23 24 24 23 20 16 16 14 17 19 10 11 10 9 18 32 29 27 28 32 38 44
27 28 30 31 20 7 8 10 17 12 8 9 12 14 13 16 15 3 7 8 9 4 5 3 5 9 7 24 14 14 22 24 25 24 19 16 16 18 20 27 23 14 15 14 23 20 22 26 22 20 22 30 40 41
28 26 24 21 18 20 11 9 12 11 9 8 13 10 8 4 3 15 6 8 11 7 7 13 19 22 18 25 28 28 23 17 15 11 10 10 10 12 21 26 24 19 19 19 22 23 21 28 13 18 24 28 40 38
12 11 12 22 12 10 11 13 10 5 7 3 1 5 5 3 9 8 10 17 8 11 6 7 14 13 10 10 12 19 19 21 22 16 11 7 5 7 18 23 21 23 23 21 17 19 20 29 21 16 17 27 40 30
1 4 8 7 8 8 14 11 11 13 2 1 2 4 5 6 7 7 9 7 6 10 10 7 13 19 14 6 10 11 5 9 13 13 14 13 14 11 9 10 13 16 20 22 18 20 23 21 24 24 25 30 39 56
2 5 5 6 6 10 18 9 9 8 6 3 1 5 7 12 12 7 5 5 5 16 17 19 22 26 27 27 27 24 22 21 19 15 13 13 12 20 15 12 15 16 18 18 15 16 19 20 23 31 38 48 50 58
2 2 4 7 3 7 9 10 13 10 7 8 6 7 6 14 4 4 2 2 9 18 15 13 16 20 28 36 40 42 37 39 40 38 34 26 20 17 21 22 21 22 18 11 13 14 19 18 25 30 36 49 58 54
5 5 4 8 8 7 3 7 8 9 7 7 9 14 10 4 5 2 3 10 19 22 22 21 20 19 18 18 26 29 28 29 35 47 50 48 40 31 26 20 21 18 14 15 11 14 21 26 28 31 32 43 51 54
7 7 8 8 9 5 9 12 13 9 6 8 6 10 6 7 4 5 17 27 34 28 21 20 22 26 24 21 18 16 22 30 34 31 33 41 50 41 31 30 21 18 15 9 10 8 17 28 35 44 51 41 35 33
8 9 6 16 17 21 7 8 9 10 7 14 14 7 7 8 4 16 33 46 33 19 22 17 20 19 16 14 14 12 18 20 21 22 27 38 48 44 36 30 30 23 17 13 11 7 9 23 33 36 38 41 37 41
13 19 19 20 14 14 16 10 13 13 18 16 10 6 10 9 30 48 62 50 16 6 7 7 8 8 9 12 12 8 20 25 30 33 34 43 56 54 45 37 32 29 27 21 18 12 13 20 25 30 35 42 40 46
18 13 10 14 8 8 9 9 10 22 27 31 23 19 23 23 34 60 68 43 30 23 17 12 8 8 11 18 19 17 17 14 20 26 31 44 54 53 52 42 39 34 30 25 24 28 31 30 28 34 45 54 47 46
11 15 11 11 7 5 8 12 20 24 22 34 38 32 36 23 47 76 78 66 47 32 28 27 24 25 22 25 21 22 20 15 10 11 13 27 37 45 54 44 37 34 32 25 28 37 38 36 44 49 50 51 44 47
13 7 10 5 5 8 15 15 27 36 41 42 45 40 43 34 41 65 79 70 66 53 39 41 37 31 28 25 23 23 27 33 31 34 42 44 43 46 47 41 38 34 30 36 42 39 44 53 56 51 41 41 41 42
29 27 17 10 7 5 6 3 4 6 9 20 41 49 40 23 17 52 66 65 62 57 52 35 43 40 43 44 44 40 34 34 34 33 33 36 41 44 42 36 30 28 30 38 46 58 53 43 35 38 38 38 40 43
Wind_Direction_850mb
207 200 201 201 204 208 217 224 211 210 209 220 223 223 222 222 210 226 228 214 218 243 261 264 259 238 223 244 173 299 343 289 319 122 321 320 307 310 299 279 229 230 212 224 147 183 256 187 147 181 230 170 202 197
202 189 190 196 193 204 209 203 204 210 215 215 218 220 224 221 215 227 231 222 231 240 258 273 250 255 253 245 238 229 247 212 165 109 199 252 291 305 314 280 324 241 219 244 188 216 244 220 228 228 245 215 204 190
175 184 184 177 184 192 196 202 205 207 211 217 216 218 225 224 218 229 239 239 248 275 276 269 266 273 263 251 246 224 248 233 219 226 165 250 262 278 261 282 314 317 321 235 102 251 248 260 230 232 212 207 203 195
169 171 179 182 183 186 188 191 198 207 211 212 215 222 227 221 219 232 242 244 241 258 266 283 267 262 252 219 226 234 239 240 251 214 192 203 238 220 244 265 266 264 296 281 280 286 280 256 241 219 187 191 182 180
174 178 184 187 186 185 186 185 189 193 197 201 202 213 218 218 222 234 244 245 233 222 284 292 298 290 246 230 242 239 238 230 223 183 206 217 213 238 230 239 238 213 271 252 253 278 294 255 236 225 186 180 181 173
175 176 177 178 180 175 180 185 187 188 188 194 203 212 210 206 210 216 253 245 226 220 275 300 293 295 250 242 220 226 231 232 209 213 228 245 243 250 257 260 235 249 273 282 250 271 268 271 260 220 213 194 179 176
173 175 174 175 181 184 180 182 185 189 191 196 204 210 211 207 206 192 203 160 164 191 251 283 280 290 326 215 204 214 211 196 200 216 232 247 252 209 266 263 272 297 295 296 251 259 270 265 245 204 193 169 169 168
177 176 173 173 172 176 184 185 187 191 195 198 200 204 217 221 227 236 224 198 55 218 253 267 272 310 5 227 169 191 184 197 211 222 224 223 254 212 244 254 293 308 294 265 276 235 246 141 150 160 169 165 158 155
173 173 177 180 176 176 180 181 183 187 186 186 199 213 240 228 228 262 230 219 235 240 269 240 269 282 346 343 151 175 169 152 223 206 229 230 229 242 239 234 286 308 335 308 242 152 122 120 119 124 136 136 132 131
173 175 180 184 186 184 178 178 181 179 174 181 196 209 219 207 181 165 167 172 195 228 221 245 232 262 335 359 300 256 176 195 221 227 183 206 249 246 252 255 283 310 348 311 221 179 140 118 124 131 110 131 136 124
169 173 174 171 182 188 187 183 180 177 178 171 159 249 227 218 173 188 185 181 202 240 221 232 217 223 238 180 259 241 185 251 234 258 190 217 263 242 249 231 248 326 359 351 258 228 159 130 133 131 134 327 134 162
177 180 181 182 180 183 181 182 183 185 177 177 193 261 257 202 179 174 191 202 220 234 211 206 230 211 234 183 174 226 190 250 243 199 221 275 264 332 261 191 196 197 1 8 139 144 148 133 126 123 127 155 170 165
176 178 178 182 182 179 181 182 184 186 191 194 223 249 221 220 200 203 191 200 224 217 182 31 283 213 201 196 172 238 235 233 323 235 220 235 335 348 182 166 154 159 146 80 148 155 156 158 186 191 180 182 178 163
179 179 179 180 182 177 177 175 184 186 184 204 225 249 216 208 232 202 205 209 239 239 98 27 307 207 200 170 176 250 236 326 302 293 295 320 334 327 194 183 146 124 118 94 124 135 176 132 180 174 182 186 172 158
177 176 176 175 175 177 173 179 186 186 196 219 210 231 223 235 247 225 233 254 254 274 234 17 271 235 242 199 195 260 270 280 265 288 278 336 26 77 134 141 153 134 126 134 119 100 125 144 137 153 159 166 161 158
160 164 176 170 172 170 172 185 198 198 220 231 226 244 246 255 275 246 227 236 230 290 151 198 234 215 203 180 161 213 221 220 228 194 280 93 43 53 78 93 118 144 83 120 146 183 180 197 170 150 147 160 169 164
159 171 166 169 164 165 177 168 175 223 230 234 241 240 257 276 274 286 310 255 264 198 165 204 203 195 118 144 217 201 220 192 146 130 87 74 120 348 49 77 79 82 82 125 144 158 178 167 171 152 158 168 180 175
155 157 160 158 163 166 177 187 229 223 240 243 242 261 263 263 273 279 267 258 228 190 172 222 150 165 181 178 223 235 100 114 112 120 115 98 90 91 110 37 60 40 36 70 111 123 181 170 165 171 175 170 180 179
145 149 156 161 166 160 180 212 220 252 240 257 260 270 268 291 291 281 297 360 194 188 174 6 47 131 218 9 115 127 137 132 122 111 104 97 88 77 79 64 54 52 76 153 142 151 132 167 168 168 177 171 171 176
136 145 147 151 175 211 237 218 203 244 255 256 270 266 273 282 307 25 305 354 101 61 85 54 32 3 62 76 85 123 147 150 141 126 109 89 78 59 56 37 34 52 73 119 146 144 147 136 145 155 171 175 178 173
145 158 173 196 232 236 247 237 224 230 230 239 265 283 308 351 98 115 81 129 59 37 72 51 68 75 109 98 99 100 118 140 143 143 121 86 82 61 36 37 43 78 80 125 125 120 138 152 118 167 159 162 178 175
143 183 213 223 243 239 248 240 233 213 192 275 253 265 292 39 109 128 103 53 62 37 58 81 40 47 98 154 108 91 97 99 107 114 117 107 115 70 46 38 49 84 77 99 105 115 121 139 156 154 167 167 158 159
161 263 273 262 268 259 275 243 209 179 144 305 98 15 3 28 34 148 77 76 108 34 5 352 312 318 317 301 194 228 225 145 135 133 137 120 91 70 60 59 77 104 90 96 98 105 103 116 142 136 137 150 161 166
270 255 268 274 260 289 324 335 343 8 97 57 10 54 26 5 359 76 96 114 170 338 323 305 298 288 273 269 263 254 250 246 228 206 185 166 138 100 111 126 116 110 99 87 85 89 104 123 141 143 150 151 154 157
297 256 323 326 315 332 355 359 349 12 27 11 48 26 351 359 47 42 5 268 317 329 320 302 297 290 285 279 268 256 247 245 240 233 221 214 194 161 133 136 139 113 98 140 124 112 112 123 141 147 158 163 157 156
62 359 40 345 345 45 3 18 18 3 16 32 20 335 334 346 29 342 250 289 314 313 313 308 296 288 278 274 273 265 248 233 237 232 225 218 210 199 182 162 131 127 118 128 134 141 141 146 159 162 162 163 153 153
30 337 356 12 7 29 62 55 35 37 24 11 351 350 356 355 326 282 296 325 331 331 310 293 278 273 278 284 290 265 225 221 224 230 220 209 199 195 190 193 168 159 153 133 159 148 155 160 165 163 159 156 151 160
33 34 33 38 51 43 57 40 20 11 357 350 340 10 6 354 297 306 316 350 347 319 313 282 262 263 272 266 261 254 208 199 196 193 191 192 191 185 174 180 194 191 181 153 157 148 157 173 175 181 187 173 156 159
52 75 65 44 51 49 34 27 8 6 2 355 348 339 325 299 353 352 353 7 24 342 343 308 263 239 217 210 216 197 180 177 173 173 183 189 186 185 174 177 185 189 192 183 156 138 142 152 168 174 183 165 156 159
35 79 76 37 42 37 23 85 31 17 17 8 360 346 345 346 348 6 22 38 32 40 52 56 116 130 144 155 158 155 162 164 174 182 185 187 184 181 178 177 174 172 171 170 150 142 140 135 138 146 151 152 156 161
85 79 66 44 56 36 70 50 18 7 33 31 24 18 7 1 25 30 29 34 45 63 72 75 84 91 105 145 139 137 145 140 102 148 170 162 169 178 177 172 168 175 175 169 165 155 147 143 146 146 149 151 155 154
75 78 105 91 55 89 55 52 78 65 58 40 27 21 20 25 17 20 36 43 55 62 68 74 76 85 100 108 117 121 118 117 114 123 128 132 138 149 157 163 162 166 171 167 162 153 149 144 146 154 156 156 158 155
105 102 101 124 166 233 214 194 191 260 12 41 40 28 22 16 12 7 28 42 51 60 62 68 71 85 90 96 100 101 101 104 109 117 130 138 141 143 147 150 150 156 158 159 152 151 152 154 158 159 162 161 159 159